Location: *
(43.9905°S, 176.4941°W)
Time: 06:28:52
(UTC+00:00)

Cosmos 1707 - Pass Details

Date: 08 December 2019
Orbit: 517 x 529 km, 82.5° (Epoch: 27 January)

Event Time Altitude Azimuth Distance (km) Brightness Sun altitude
Rises 08:43:29 0° 189° (S) 2,709 7.4 -12.3°
Reaches altitude 10° 08:45:39 10° 190° (S) 1,808 6.4 -12.6°
Maximum altitude 08:49:38 85° 274° (W) 543 2.8 -13.0°
Enters shadow 08:52:35 17° 5° (N) 1,388 4.4 -13.3°
